Location: St. Louis
(38.6270°N, 90.1994°W)
Time: 04:12:32
(UTC-06:00)

Vanguard 2 Rocket - Pass Details

Date: 07 December 2021
Orbit: 554 x 3324 km, 32.9° (Epoch: 17 January)

Event Time Altitude Azimuth Distance (km) Brightness Sun altitude
Rises 17:11:26 0° 242° (WSW) 2,892 12.2 -6.5°
Reaches altitude 10° 17:13:28 10° 234° (SW) 2,125 10.4 -6.8°
Maximum altitude 17:18:01 43° 163° (SSE) 1,227 7.6 -7.6°
Drops below altitude 10° 17:25:10 10° 95° (E) 3,339 9.2 -8.9°
Enters shadow 17:26:21 - 93° (E) 3,773 9.5 -9.1°
